Location: Fayetteville
(35.0530°N, 78.8790°W)
Time: 12:50:45
(UTC-04:00)

ISS - Visible Passes

Search period start: 31 March 2015 00:00
Search period end: 10 April 2015 00:00
Orbit: 396 x 405 km, 51.6° (Epoch: 31 March)

Date Brightness Start Highest point End Pass type
(mag) Time Alt. Az. Time Alt. Az. Time Alt. Az.
31 Mar -0.4 04:44:48 17° NE 04:44:48 17° NE 04:46:32 10° ENE visible
31 Mar -3.1 06:17:45 10° WNW 06:20:51 45° SW 06:23:56 10° SSE visible
01 Apr -3.3 05:27:08 66° N 05:27:26 75° NE 05:30:39 10° SE visible
02 Apr -1.8 06:09:47 17° WSW 06:10:06 17° SW 06:12:17 10° S visible
02 Apr -2.9 21:07:12 10° SW 21:09:48 49° S 21:09:48 49° S visible
03 Apr -2.3 20:14:10 10° S 20:16:58 27° SE 20:19:48 10° ENE visible
03 Apr -0.8 21:50:36 10° W 21:52:37 22° NW 21:52:37 22° NW visible
04 Apr -2.3 20:56:30 10° WSW 20:59:39 47° NW 21:02:25 13° NE visible
05 Apr -3.4 20:02:47 10° SW 20:06:02 76° SE 20:09:17 10° NE visible
05 Apr -0.3 21:41:04 10° WNW 21:42:48 13° NNW 21:44:28 10° N visible
06 Apr -0.8 20:46:17 10° W 20:48:54 22° NNW 20:51:31 10° NNE visible
08 Apr -0.3 20:36:42 10° NW 20:38:10 12° NNW 20:39:35 10° N visible
